Overview Statistics Trail Chart Weather Telemetry Raw packets
 

This is the latest recevied weather packets stored in our database for station/object DL4MGC-10. If no packets are shown the sender has not sent any weather packets the latest 10 day(s).

<< 1 2 3 4 >>
Time Temp. Humidity Pressure Rain* Wind** Luminosity Snow
1788702173 26.11° C 43% 1025 hPa - - - -
1788701273 26.11° C 44% 1025.1 hPa - - - -
1788700373 25.56° C 41% 1025.2 hPa - - - -
1788699473 25.56° C 45% 1025.4 hPa - - - -
1788698573 24.44° C 46% 1025.5 hPa - - - -
1788697673 24.44° C 47% 1025.6 hPa - - - -
1788696773 26.11° C 46% 1025.6 hPa - - - -
1788695873 25.56° C 46% 1025.7 hPa - - - -
1788694973 23.89° C 49% 1025.9 hPa - - - -
1788694072 23.89° C 48% 1026 hPa - - - -
1788693172 24.44° C 48% 1026.2 hPa - - - -
1788692272 22.78° C 53% 1026.3 hPa - - - -
1788691372 22.22° C 53% 1026.5 hPa - - - -
1788690472 22.22° C 55% 1026.6 hPa - - - -
1788689572 22.78° C 55% 1026.7 hPa - - - -
1788688672 21.67° C 58% 1027 hPa - - - -
1788687772 21.67° C 58% 1027.2 hPa - - - -
1788686872 21.67° C 60% 1027.2 hPa - - - -
1788685971 20.56° C 61% 1027.2 hPa - - - -
1788685071 20.56° C 61% 1027.3 hPa - - - -
1788684171 20.56° C 62% 1027.4 hPa - - - -
1788683271 20.56° C 65% 1027.4 hPa - - - -
1788682371 19.44° C 67% 1027.3 hPa - - - -
1788681471 20.56° C 66% 1027.2 hPa - - - -
1788680571 21.67° C 67% 1027.3 hPa - - - -

* Rain since midnight (hover to see other rain measurements)
** Current wind speed in m/s (hover to see current wind gust speed)